• In Spain
  • List of Countries
  • For 7 days
  • Water Temperature
  • Satellite Maps
  • Weather Map
  • Weather Widgets
  • user-avatar
    Login

    Hourly Weather Korçe

    Today, 15 December, Friday

    Time Temperature Precipitation Wind Pressure Humidity
    00:00 +3°C° 0 mm 2 mps 665 mmHg 92%
    01:00 +2°C° 0 mm 3 mps 665 mmHg 93%
    02:00 +2°C° 0 mm 3 mps 665 mmHg 93%
    03:00 +3°C° 0 mm 3 mps 665 mmHg 93%
    04:00 +3°C° 0 mm 3 mps 665 mmHg 93%
    05:00 +3°C° 0 mm 3 mps 665 mmHg 93%
    06:00 +3°C° 0 mm 3 mps 665 mmHg 93%
    07:00 +3°C° 0 mm 3 mps 664 mmHg 94%
    08:00 +4°C° 0 mm 3 mps 664 mmHg 91%
    09:00 +5°C° 0 mm 4 mps 664 mmHg 89%
    10:00 +6°C° 0 mm 4 mps 664 mmHg 86%
    11:00 +6°C° 0.1 mm 4 mps 664 mmHg 84%
    12:00 +6°C° 0.1 mm 5 mps 664 mmHg 83%
    13:00 +6°C° 0 mm 5 mps 663 mmHg 80%
    14:00 +6°C° 0.1 mm 5 mps 663 mmHg 83%
    15:00 +5°C° 0.1 mm 4 mps 663 mmHg 85%
    16:00 +5°C° 0.1 mm 4 mps 663 mmHg 87%
    17:00 +4°C° 0.1 mm 4 mps 663 mmHg 89%
    18:00 +4°C° 0.1 mm 4 mps 662 mmHg 90%
    19:00 +4°C° 0.1 mm 4 mps 662 mmHg 91%
    20:00 +4°C° 0.1 mm 4 mps 662 mmHg 92%
    21:00 +4°C° 0.1 mm 4 mps 662 mmHg 93%
    22:00 +4°C° 0.1 mm 4 mps 662 mmHg 93%
    23:00 +5°C° 0.1 mm 4 mps 662 mmHg 93%

    Tomorrow, 16 December, Saturday

    Time Temperature Precipitation Wind Pressure Humidity
    00:00 +5°C° 0.1 mm 4 mps 662 mmHg 93%
    01:00 +5°C° 0.1 mm 4 mps 662 mmHg 93%
    02:00 +5°C° 0.1 mm 4 mps 661 mmHg 93%
    03:00 +5°C° 0.1 mm 4 mps 661 mmHg 93%
    04:00 +5°C° 0.1 mm 5 mps 661 mmHg 93%
    05:00 +5°C° 0.1 mm 4 mps 661 mmHg 93%
    06:00 +5°C° 0.1 mm 4 mps 661 mmHg 93%
    07:00 +5°C° 0.1 mm 4 mps 660 mmHg 93%
    08:00 +6°C° 0.2 mm 4 mps 661 mmHg 91%
    09:00 +6°C° 0.2 mm 4 mps 661 mmHg 89%
    10:00 +7°C° 0.2 mm 4 mps 661 mmHg 86%
    11:00 +7°C° 0.8 mm 4 mps 661 mmHg 86%
    12:00 +6°C° 0.8 mm 4 mps 660 mmHg 87%
    13:00 +6°C° 0.8 mm 4 mps 660 mmHg 87%
    14:00 +7°C° 1.4 mm 3 mps 660 mmHg 89%
    15:00 +5°C° 1.4 mm 3 mps 660 mmHg 91%
    16:00 +6°C° 1.4 mm 2 mps 659 mmHg 94%
    17:00 +5°C° 1.1 mm 2 mps 660 mmHg 94%
    18:00 +5°C° 1.1 mm 2 mps 660 mmHg 95%
    19:00 +6°C° 1.1 mm 1 mps 660 mmHg 96%
    20:00 +6°C° 1.2 mm 1 mps 660 mmHg 95%
    21:00 +6°C° 1.2 mm 1 mps 660 mmHg 95%
    22:00 +6°C° 1.2 mm 1 mps 660 mmHg 95%
    23:00 +5°C° 0.3 mm 1 mps 661 mmHg 95%

    Day after tomorrow, 17 December, Sunday

    Time Temperature Precipitation Wind Pressure Humidity
    00:00 +5°C° 0.3 mm 1 mps 661 mmHg 94%
    01:00 +5°C° 0.3 mm 1 mps 661 mmHg 94%
    02:00 +5°C° 0.2 mm 1 mps 661 mmHg 94%
    03:00 +4°C° 0.2 mm 2 mps 661 mmHg 94%
    04:00 +3°C° 0.2 mm 2 mps 661 mmHg 93%
    05:00 +3°C° 0.1 mm 2 mps 661 mmHg 92%
    06:00 +3°C° 0.1 mm 2 mps 661 mmHg 91%
    07:00 +2°C° 0.1 mm 2 mps 661 mmHg 90%
    08:00 +3°C° 0 mm 2 mps 662 mmHg 83%
    09:00 +4°C° 0 mm 2 mps 662 mmHg 76%
    10:00 +4°C° 0 mm 2 mps 663 mmHg 69%
    11:00 +5°C° 0.1 mm 2 mps 663 mmHg 67%
    12:00 +4°C° 0.1 mm 3 mps 663 mmHg 65%
    13:00 +4°C° 0.1 mm 3 mps 663 mmHg 62%
    14:00 +3°C° 0.1 mm 3 mps 663 mmHg 67%
    15:00 +3°C° 0.1 mm 2 mps 663 mmHg 73%
    16:00 +2°C° 0.1 mm 2 mps 663 mmHg 78%
    17:00 +2°C° 0.1 mm 2 mps 663 mmHg 80%
    18:00 +1°C° 0.1 mm 2 mps 664 mmHg 83%
    19:00 +1°C° 0.1 mm 2 mps 664 mmHg 86%
    20:00 -1°C° 0.2 mm 2 mps 665 mmHg 87%
    21:00 -1°C° 0.2 mm 2 mps 665 mmHg 87%
    22:00 -1°C° 0.2 mm 2 mps 665 mmHg 88%
    23:00 -1°C° 0.2 mm 2 mps 666 mmHg 88%

    18 December, Monday

    Time Temperature Precipitation Wind Pressure Humidity
    00:00 -1°C° 0.2 mm 2 mps 666 mmHg 88%
    01:00 -1°C° 0.2 mm 2 mps 666 mmHg 88%
    02:00 -1°C° 0.2 mm 2 mps 666 mmHg 89%
    03:00 -2°C° 0.2 mm 2 mps 666 mmHg 89%
    04:00 0°C° 0.2 mm 1 mps 666 mmHg 90%
    05:00 0°C° 0.2 mm 1 mps 666 mmHg 90%
    06:00 0°C° 0.2 mm 1 mps 667 mmHg 90%
    07:00 0°C° 0.2 mm 1 mps 667 mmHg 89%
    08:00 0°C° 0.1 mm 1 mps 667 mmHg 85%
    09:00 -1°C° 0.1 mm 2 mps 668 mmHg 81%
    10:00 +1°C° 0.1 mm 2 mps 668 mmHg 76%
    11:00 +1°C° 0.2 mm 2 mps 668 mmHg 75%
    12:00 +1°C° 0.2 mm 2 mps 668 mmHg 74%
    13:00 +1°C° 0.2 mm 2 mps 668 mmHg 72%
    14:00 -1°C° 0.2 mm 2 mps 667 mmHg 76%
    15:00 -1°C° 0.2 mm 2 mps 667 mmHg 80%
    16:00 -2°C° 0.2 mm 2 mps 667 mmHg 83%
    17:00 -3°C° 0.1 mm 2 mps 667 mmHg 85%
    18:00 -3°C° 0.1 mm 2 mps 667 mmHg 87%
    19:00 -2°C° 0.1 mm 1 mps 668 mmHg 89%
    20:00 -2°C° 0 mm 1 mps 668 mmHg 89%
    21:00 -2°C° 0 mm 1 mps 668 mmHg 89%
    22:00 -2°C° 0 mm 1 mps 669 mmHg 88%
    23:00 -3°C° 0 mm 1 mps 669 mmHg 87%

    19 December, Tuesday

    Time Temperature Precipitation Wind Pressure Humidity
    00:00 -3°C° 0 mm 1 mps 669 mmHg 86%
    01:00 -3°C° 0 mm 1 mps 669 mmHg 85%
    02:00 -3°C° 0 mm 1 mps 669 mmHg 84%
    03:00 -3°C° 0 mm 1 mps 669 mmHg 83%
    04:00 -3°C° 0 mm 1 mps 669 mmHg 82%
    05:00 -3°C° 0 mm 1 mps 670 mmHg 81%
    06:00 -3°C° 0 mm 1 mps 670 mmHg 80%
    07:00 -4°C° 0 mm 1 mps 670 mmHg 80%
    08:00 -2°C° 0 mm 1 mps 671 mmHg 73%
    09:00 -3°C° 0 mm 2 mps 672 mmHg 66%
    10:00 -1°C° 0 mm 2 mps 672 mmHg 59%
    11:00 +1°C° 0 mm 1 mps 672 mmHg 55%
    12:00 +2°C° 0 mm 1 mps 672 mmHg 51%
    13:00 +2°C° 0 mm 1 mps 672 mmHg 48%
    14:00 +1°C° 0 mm 1 mps 672 mmHg 52%
    15:00 +1°C° 0 mm 1 mps 672 mmHg 57%
    16:00 0°C° 0 mm 1 mps 672 mmHg 61%
    17:00 -3°C° 0 mm 2 mps 672 mmHg 63%
    18:00 -4°C° 0 mm 2 mps 672 mmHg 64%
    19:00 -4°C° 0 mm 2 mps 672 mmHg 66%
    20:00 -4°C° 0 mm 2 mps 672 mmHg 67%
    21:00 -5°C° 0 mm 2 mps 672 mmHg 67%
    22:00 -5°C° 0 mm 2 mps 673 mmHg 68%
    23:00 -5°C° 0 mm 2 mps 673 mmHg 68%

    20 December, Wednesday

    Time Temperature Precipitation Wind Pressure Humidity
    00:00 -5°C° 0 mm 2 mps 673 mmHg 68%
    01:00 -5°C° 0 mm 2 mps 673 mmHg 68%
    02:00 -5°C° 0 mm 2 mps 673 mmHg 68%
    03:00 -6°C° 0 mm 2 mps 673 mmHg 68%
    04:00 -6°C° 0 mm 2 mps 672 mmHg 68%
    05:00 -6°C° 0 mm 2 mps 673 mmHg 68%
    06:00 -6°C° 0 mm 2 mps 673 mmHg 68%
    07:00 -6°C° 0 mm 2 mps 673 mmHg 68%
    08:00 -5°C° 0 mm 2 mps 673 mmHg 62%
    09:00 -4°C° 0 mm 2 mps 674 mmHg 56%
    10:00 -3°C° 0 mm 2 mps 674 mmHg 51%
    11:00 -2°C° 0 mm 2 mps 674 mmHg 50%
    12:00 -1°C° 0 mm 2 mps 674 mmHg 48%
    13:00 -1°C° 0 mm 2 mps 674 mmHg 47%
    14:00 -2°C° 0 mm 2 mps 674 mmHg 51%
    15:00 -2°C° 0 mm 2 mps 674 mmHg 56%
    16:00 -3°C° 0 mm 2 mps 674 mmHg 61%
    17:00 -4°C° 0 mm 2 mps 674 mmHg 63%
    18:00 -5°C° 0 mm 2 mps 674 mmHg 65%
    19:00 -5°C° 0 mm 2 mps 674 mmHg 67%
    20:00 -6°C° 0 mm 2 mps 674 mmHg 67%
    21:00 -6°C° 0 mm 2 mps 674 mmHg 68%
    22:00 -6°C° 0 mm 2 mps 674 mmHg 68%
    23:00 -6°C° 0 mm 2 mps 674 mmHg 69%
    Show more